Date String (YYYY-MM-DD hh:mm:ss) UTC,Instrument flags,Ambient pressure (hPa),Sample flow (lpm),Bypass flow (lpm),Sample temperature (°C),Ambient temperature (°C),ASC tube jacket temperature (°C),LED temperature (°C),Box temperature (°C),Sample RH (%),Span deviation,Mass concentration (μg/m³),Mass concentration (μg/m³),Mass concentration (μg/m³)
DateTimeUTC,F1_M11,P_M11,Q1_M11,Q2_M11,T1_M11,T2_M11,T3_M11,T4_M11,T5_M11,U1_M11,ZSPAN_M11,X0_M11,X2_M11,X1_M11
2022-03-05 16:00:00,,0817.5,4.99,0.00,22.3,21.5,00.0,31.5,24.0,18.6,0000.0,0002.37,0002.43,0002.40
2022-03-05 16:01:00,,0817.5,5.01,0.00,22.3,21.5,00.0,31.4,24.0,18.6,0000.0,0002.17,0002.21,0002.20
2022-03-05 16:02:00,,0817.6,5.00,0.00,22.3,21.5,00.0,31.4,24.0,18.5,0000.0,0001.99,0002.01,0002.00
2022-03-05 16:03:00,,0817.5,5.00,0.00,22.2,21.5,00.0,31.4,23.9,18.4,0000.0,0001.78,0001.81,0001.81
2022-03-05 16:04:00,,0817.6,5.00,0.00,22.2,21.3,00.0,31.4,23.9,18.3,0000.0,0001.64,0001.66,0001.66
2022-03-05 16:05:00,,0817.6,5.00,0.00,22.3,21.7,00.0,31.4,24.0,18.2,0000.0,0001.57,0001.58,0001.57
2022-03-05 16:06:00,,0817.6,5.00,0.00,22.4,22.4,00.0,31.5,24.3,18.0,0000.0,0001.48,0001.48,0001.47
2022-03-05 16:07:00,,0817.6,4.99,0.00,22.5,22.9,00.0,31.5,24.5,17.8,0000.0,0001.43,0001.43,0001.42
2022-03-05 16:08:00,,0817.6,5.01,0.00,22.6,22.8,00.0,31.5,24.6,17.7,0000.0,0001.42,0001.42,0001.41
2022-03-05 16:09:00,,0817.7,5.00,0.00,22.6,22.6,00.0,31.5,24.5,17.6,0000.0,0001.43,0001.42,0001.42
2022-03-05 16:10:00,,0817.6,5.00,0.00,22.6,22.5,00.0,31.5,24.5,17.6,0000.0,0001.45,0001.44,0001.43
2022-03-05 16:11:00,,0817.7,5.00,0.00,22.6,22.3,00.0,31.5,24.4,17.5,0000.0,0001.48,0001.46,0001.46
2022-03-05 16:12:00,,0817.7,5.00,0.00,22.6,22.2,00.0,31.5,24.4,17.5,0000.0,0001.52,0001.49,0001.48
2022-03-05 16:13:00,,0817.7,5.00,0.00,22.6,22.1,00.0,31.5,24.3,17.5,0000.0,0001.55,0001.51,0001.49
2022-03-05 16:14:00,,0817.7,5.00,0.00,22.6,22.1,00.0,31.5,24.3,17.6,0000.0,0001.58,0001.53,0001.51
2022-03-05 16:15:00,,0817.7,5.00,0.00,22.6,22.0,00.0,31.5,24.3,17.5,0000.0,0001.60,0001.55,0001.53
2022-03-05 16:16:00,,0817.8,5.01,0.00,22.5,21.9,00.0,31.5,24.3,17.5,0000.0,0001.60,0001.55,0001.53
2022-03-05 16:17:00,,0817.7,4.99,0.00,22.5,21.9,00.0,31.5,24.2,17.5,0000.0,0001.65,0001.58,0001.55
2022-03-05 16:18:00,,0817.7,4.99,0.00,22.5,21.8,00.0,31.5,24.2,17.4,0000.0,0001.68,0001.58,0001.55
2022-03-05 16:19:00,,0817.7,5.00,0.00,22.5,21.8,00.0,31.5,24.2,17.3,0000.0,0001.68,0001.58,0001.55
2022-03-05 16:20:00,,0817.7,5.02,0.00,22.4,21.8,00.0,31.5,24.2,17.3,0000.0,0001.68,0001.59,0001.55
2022-03-05 16:21:00,,0817.7,4.99,0.00,22.4,21.7,00.0,31.5,24.1,17.3,0000.0,0001.69,0001.59,0001.55
2022-03-05 16:22:00,,0817.7,5.00,0.00,22.4,21.7,00.0,31.5,24.1,17.3,0000.0,0001.74,0001.60,0001.55
2022-03-05 16:23:00,,0817.7,5.00,0.00,22.4,21.7,00.0,31.5,24.1,17.4,0000.0,0001.77,0001.60,0001.54
2022-03-05 16:24:00,,0817.7,5.00,0.00,22.4,21.7,00.0,31.5,24.1,17.4,0000.0,0001.74,0001.58,0001.52
2022-03-05 16:25:00,,0817.7,4.99,0.00,22.3,21.7,00.0,31.5,24.0,17.3,0000.0,0001.72,0001.56,0001.49
2022-03-05 16:26:00,,0817.8,5.00,0.00,22.4,22.1,00.0,31.5,24.2,17.3,0000.0,0001.74,0001.54,0001.47
2022-03-05 16:27:00,,0817.8,5.00,0.00,22.6,22.9,00.0,31.6,24.5,17.2,0000.0,0001.78,0001.55,0001.46
2022-03-05 16:28:00,,0817.8,5.00,0.00,22.7,23.2,00.0,31.6,24.7,17.1,0000.0,0001.76,0001.53,0001.45
2022-03-05 16:29:00,,0817.8,5.00,0.00,22.7,23.0,00.0,31.6,24.7,17.1,0000.0,0001.70,0001.51,0001.43
2022-03-05 16:30:00,,0817.9,5.01,0.00,22.7,22.8,00.0,31.6,24.6,17.1,0000.0,0001.70,0001.50,0001.43
2022-03-05 16:31:00,,0817.8,5.00,0.00,22.7,22.7,00.0,31.6,24.6,17.1,0000.0,0001.73,0001.51,0001.42
2022-03-05 16:32:00,,0817.8,4.99,0.00,22.7,22.5,00.0,31.6,24.5,17.2,0000.0,0001.72,0001.51,0001.42
2022-03-05 16:33:00,,0817.9,5.00,0.00,22.7,22.4,00.0,31.6,24.5,17.2,0000.0,0001.67,0001.48,0001.40
2022-03-05 16:34:00,,0817.9,5.00,0.00,22.7,22.4,00.0,31.7,24.5,17.2,0000.0,0001.70,0001.51,0001.41
2022-03-05 16:35:00,,0817.9,4.99,0.00,22.7,22.3,00.0,31.7,24.5,17.0,0000.0,0001.75,0001.60,0001.49
2022-03-05 16:36:00,,0817.9,5.01,0.00,22.7,22.2,00.0,31.7,24.5,16.9,0000.0,0001.87,0001.73,0001.61
2022-03-05 16:37:00,,0817.9,5.01,0.00,22.7,22.2,00.0,31.7,24.4,16.7,0000.0,0001.97,0001.83,0001.70
2022-03-05 16:38:00,,0818.0,4.99,0.00,22.7,22.1,00.0,31.7,24.4,16.6,0000.0,0002.11,0001.98,0001.82
2022-03-05 16:39:00,,0818.0,4.99,0.00,22.7,22.1,00.0,31.7,24.4,16.4,0000.0,0002.26,0002.10,0001.92
2022-03-05 16:40:00,,0818.0,5.00,0.00,22.7,22.0,00.0,31.7,24.4,16.3,0000.0,0002.41,0002.21,0002.01
2022-03-05 16:41:00,,0818.0,5.01,0.00,22.6,22.0,00.0,31.7,24.4,16.3,0000.0,0002.57,0002.35,0002.12
2022-03-05 16:42:00,,0818.0,5.00,0.00,22.6,22.0,00.0,31.7,24.4,16.2,0000.0,0002.64,0002.43,0002.21
2022-03-05 16:43:00,,0818.0,4.99,0.00,22.6,21.9,00.0,31.7,24.4,16.2,0000.0,0002.73,0002.51,0002.28
2022-03-05 16:44:00,,0818.0,5.01,0.00,22.6,22.0,00.0,31.6,24.4,16.3,0000.0,0002.79,0002.58,0002.34
2022-03-05 16:45:00,,0818.0,5.00,0.00,22.6,21.9,00.0,31.6,24.3,16.3,0000.0,0002.83,0002.63,0002.41
2022-03-05 16:46:00,,0818.0,5.00,0.00,22.6,21.9,00.0,31.6,24.3,16.2,0000.0,0002.90,0002.66,0002.42
2022-03-05 16:47:00,,0818.0,5.00,0.00,22.6,21.9,00.0,31.6,24.3,16.3,0000.0,0002.98,0002.68,0002.39
2022-03-05 16:48:00,,0818.0,4.99,0.00,22.6,21.9,00.0,31.6,24.3,16.2,0000.0,0003.01,0002.70,0002.39
2022-03-05 16:49:00,,0818.0,5.00,0.00,22.5,21.9,00.0,31.6,24.2,16.1,0000.0,0002.96,0002.64,0002.34
2022-03-05 16:50:00,,0818.0,5.00,0.00,22.5,21.8,00.0,31.6,24.2,16.1,0000.0,0002.91,0002.62,0002.34
2022-03-05 16:51:00,,0818.0,5.00,0.00,22.5,22.0,00.0,31.6,24.3,16.0,0000.0,0002.91,0002.63,0002.35
2022-03-05 16:52:00,,0818.0,5.01,0.00,22.6,22.6,00.0,31.7,24.5,15.9,0000.0,0002.95,0002.61,0002.33
2022-03-05 16:53:00,,0818.0,5.01,0.00,22.8,23.3,00.0,31.7,24.8,15.7,0000.0,0003.04,0002.64,0002.33
2022-03-05 16:54:00,,0818.0,4.99,0.00,22.9,23.2,00.0,31.7,24.9,15.6,0000.0,0003.08,0002.65,0002.33
2022-03-05 16:55:00,,0818.0,5.00,0.00,22.9,23.0,00.0,31.7,24.8,15.6,0000.0,0003.25,0002.72,0002.34
2022-03-05 16:56:00,,0818.0,5.00,0.00,22.9,22.8,00.0,31.7,24.8,15.5,0000.0,0003.34,0002.74,0002.33
2022-03-05 16:57:00,,0818.0,4.99,0.00,22.9,22.7,00.0,31.8,24.7,15.5,0000.0,0003.29,0002.68,0002.28
2022-03-05 16:58:00,,0818.0,5.01,0.00,22.9,22.6,00.0,31.8,24.7,15.6,0000.0,0003.28,0002.63,0002.24
2022-03-05 16:59:00,,0818.1,4.99,0.00,22.8,22.5,00.0,31.8,24.7,15.5,0000.0,0003.24,0002.59,0002.22
